Regional Weather Roundup
Issued by NWS

Home | Current Version | Previous Version | Graphics & Text | Print | Product List | Glossary On
Versions: 1 2 3 4 5 6 7 8 9 10 11 12 13 14 15 16 17 18 19 20 21 22 23 24 25 26 27 28 29 30 31 32 33 34 35 36 37 38 39 40 41 42 43 44 45 46 47 48 49 50
507
ASUS43 KIND 170509
RWRIN

WEATHER ROUNDUP FOR INDIANA
NATIONAL WEATHER SERVICE INDIANAPOLIS IN
100 AM EDT TUE OCT 17 2017

NOTE: "FAIR" INDICATES FEW OR NO CLOUDS BELOW 12,000 FEET WITH NO
SIGNIFICANT WEATHER AND/OR OBSTRUCTIONS TO VISIBILITY.

* - STATION DOES NOT REPORT WEATHER SUCH AS PRECIPITATION OR FOG.

+ - STATION NOT QUALITY CONTROLLED BY THE NATIONAL WEATHER SERVICE.
    USE DATA WITH CAUTION...ESPECIALLY DEWPOINT AND RELATIVE
    HUMIDITY OBSERVATIONS.

INZ001>003-010>013-019-020-170600-
NORTHWEST INDIANA

CITY           SKY/WX    TMP DP  RH WIND       PRES   REMARKS
GARY /AIRPORT/ CLEAR     47  38  70 CALM      30.23S
KNOX *+        CLEAR     45  37  76 S5        30.24S
LA PORTE +     CLEAR     44  38  81 SW3       30.24S
MICHIGAN CITY+ CLEAR     41  41 100 CALM      30.24R
MONTICELLO +   CLEAR     46  37  73 S5        30.26F
RENSSELAER +   CLEAR     46  34  61 SW6       30.25S
VALPARAISO     CLEAR     48  39  71 S5        30.24S

$$

LMZ046-743>745-170600-
SOUTHERN LAKE MICHIGAN

STATION/POSITION TIME  TEMP    WIND        PRES    WAVE
                       AIR SEA DIR/SP/G            HT
                 (UTC) (F)     (DEG/KT/KT) (MB)    (FT)
BURNS HARBOR     0440   52     190/ 10/ 11 1023.7F
5NW MICH CITY    0500   55 57  210/ 12/ 14   N/A     2

$$

INZ004-005-014>016-021>024-170600-
NORTH CENTRAL INDIANA

CITY           SKY/WX    TMP DP  RH WIND       PRES   REMARKS
GOSHEN         CLEAR     46  37  71 S6        30.24S
LOGANSPORT +   CLEAR     45  37  76 S7        30.27F
PERU/GRISSOM   CLEAR     44  38  80 SW8       30.26F
SOUTH BEND     CLEAR     44  39  82 SW7       30.23F
WARSAW +       CLEAR     46  37  71 CALM      30.25S

$$

INZ006>009-017-018-025>027-170600-
NORTHEAST INDIANA

CITY           SKY/WX    TMP DP  RH WIND       PRES   REMARKS
AUBURN +       CLEAR     45  37  76 CALM      30.26S
FORT WAYNE     CLEAR     43  37  79 S6        30.27S
HUNTINGTON +   CLEAR     46  37  70 S3        30.26S
KENDALLVILLE + CLEAR     46  38  74 S6        30.25S

$$

INZ028-029-035-036-043>045-051>053-170600-
WEST CENTRAL INDIANA

CITY           SKY/WX    TMP DP  RH WIND       PRES   REMARKS
CRAWFORDSVL +  CLEAR     43  37  81 S7        30.29F
GREENCASTLE +  CLEAR     41  39  93 CALM      30.30F
LAFAYETTE      CLEAR     45  39  79 SW3       30.28S
TERRE HAUTE    CLEAR     40  37  89 CALM      30.30F

$$

INZ030>032-037>040-046>048-054>057-064-065-170600-
CENTRAL INDIANA

CITY           SKY/WX    TMP DP  RH WIND       PRES   REMARKS
CP ATTERBURY + CLEAR     39  37  93 CALM      30.32F
FISHERS *+     CLEAR     41  41 100 CALM      30.29F
FRANKFORT +    PTCLDY    46  40  79 SW3       30.29F
GREENWOOD *+   CLEAR     44  42  91 CALM      30.31S
INDIANAPOLIS   CLEAR     46  39  76 SW6       30.30F
-EAGLE CREEK   CLEAR     45  39  79 S3        30.29F
KOKOMO +       CLEAR     47  38  71 S8        30.28F
MT COMFORT *+  CLEAR     41  41 100 S6        30.30S
SHELBYVILLE    CLEAR     42  37  82 S3        30.30F
ZIONSVILLE +   CLEAR     43  37  81 S5        30.29F

$$

INZ033-034-041-042-049-050-058-059-170600-
EAST CENTRAL INDIANA

CITY           SKY/WX    TMP DP  RH WIND       PRES   REMARKS
MUNCIE         CLEAR     48  37  65 S6        30.28F
RICHMOND +     CLEAR     39  37  93 S6        30.31S

$$

INZ060-061-067>069-081>083-085>088-170600-
SOUTHWEST INDIANA

CITY           SKY/WX    TMP DP  RH WIND       PRES   REMARKS
EVANSVILLE     CLEAR     44  40  85 CALM      30.34R
HUNTINGBURG +  CLEAR     43  41  93 CALM      30.33S
WASHINGTON +   CLEAR     40  39  94 CALM      30.32S

$$

INZ062-063-066-070>080-084-089>092-170600-
SOUTH CENTRAL AND SOUTHEAST INDIANA

CITY           SKY/WX    TMP DP  RH WIND       PRES   REMARKS
BEDFORD +      CLEAR     41  39  93 CALM      30.31F
BLOOMINGTON    CLEAR     41  37  86 CALM      30.31S
MADISON *+     CLEAR     41  37  87 CALM      30.34S
NORTH VERNON + CLEAR     39  37  93 CALM      30.33S
SEYMOUR +      CLEAR     39  37  93 CALM      30.33S

$$





USA.gov is the U.S. government's official web portal to all federal, state and local government web resources and services.